Date String (YYYY-MM-DD hh:mm:ss) UTC,Instrument flags,Ambient pressure (hPa),Sample flow (lpm),Bypass flow (lpm),Sample temperature (°C),Ambient temperature (°C),ASC tube jacket temperature (°C),LED temperature (°C),Box temperature (°C),Sample RH (%),Span deviation,Mass concentration (μg/m³),Mass concentration (μg/m³),Mass concentration (μg/m³)
DateTimeUTC,F1_M11,P_M11,Q1_M11,Q2_M11,T1_M11,T2_M11,T3_M11,T4_M11,T5_M11,U1_M11,ZSPAN_M11,X0_M11,X2_M11,X1_M11
2022-12-16 04:00:00,,0823.1,5.00,0.00,21.9,20.6,00.0,30.8,23.7,04.2,0000.0,0001.46,0000.99,0000.78
2022-12-16 04:01:00,,0823.0,5.01,0.00,21.9,20.5,00.0,30.8,23.7,04.2,0000.0,0001.47,0000.99,0000.78
2022-12-16 04:02:00,,0823.0,4.98,0.00,21.9,20.4,00.0,30.8,23.6,04.2,0000.0,0003.36,0001.01,0000.77
2022-12-16 04:03:00,,0823.1,5.03,0.00,21.9,20.3,00.0,30.8,23.6,04.2,0000.0,0003.61,0000.99,0000.78
2022-12-16 04:04:00,,0823.1,4.98,0.00,21.8,20.2,00.0,30.7,23.5,04.2,0000.0,0003.58,0000.98,0000.79
2022-12-16 04:05:00,,0823.1,5.03,0.00,21.8,20.3,00.0,30.7,23.5,04.2,0000.0,0003.57,0000.98,0000.79
2022-12-16 04:06:00,,0823.1,4.96,0.00,21.9,21.2,00.0,30.7,23.7,04.2,0000.0,0003.56,0000.97,0000.79
2022-12-16 04:07:00,,0823.1,5.01,0.00,22.0,22.0,00.0,30.7,23.9,04.2,0000.0,0003.62,0000.99,0000.80
2022-12-16 04:08:00,,0823.1,5.00,0.00,22.0,21.8,00.0,30.7,24.0,04.1,0000.0,0003.68,0000.97,0000.80
2022-12-16 04:09:00,,0823.1,5.00,0.00,22.0,21.4,00.0,30.8,23.9,04.1,0000.0,0004.22,0001.01,0000.81
2022-12-16 04:10:00,,0823.1,5.03,0.00,22.0,21.1,00.0,30.8,23.8,04.0,0000.0,0004.25,0001.01,0000.81
2022-12-16 04:11:00,,0823.1,4.96,0.00,22.0,20.9,00.0,30.8,23.7,04.0,0000.0,0004.32,0001.04,0000.81
2022-12-16 04:12:00,,0823.0,5.05,0.00,21.9,20.7,00.0,30.8,23.7,04.0,0000.0,0004.48,0001.07,0000.81
2022-12-16 04:13:00,,0823.0,4.98,0.00,21.9,20.6,00.0,30.8,23.7,04.0,0000.0,0002.58,0001.04,0000.81
2022-12-16 04:14:00,,0823.0,4.98,0.00,21.9,20.5,00.0,30.8,23.7,04.1,0000.0,0002.18,0001.02,0000.80
2022-12-16 04:15:00,,0823.0,4.99,0.00,21.9,20.4,00.0,30.8,23.6,04.1,0000.0,0002.20,0001.03,0000.79
2022-12-16 04:16:00,,0823.0,5.02,0.00,21.9,20.3,00.0,30.8,23.6,03.9,0000.0,0002.25,0001.04,0000.79
2022-12-16 04:17:00,,0823.0,4.98,0.00,21.8,20.3,00.0,30.8,23.6,03.9,0000.0,0002.21,0001.02,0000.79
2022-12-16 04:18:00,,0823.1,4.99,0.00,21.9,21.1,00.0,30.7,23.7,03.9,0000.0,0003.18,0000.99,0000.77
2022-12-16 04:19:00,,0823.1,5.05,0.00,22.0,22.0,00.0,30.7,24.0,03.9,0000.0,0003.18,0000.96,0000.76
2022-12-16 04:20:00,,0823.0,4.96,0.00,22.1,22.1,00.0,30.8,24.1,03.8,0000.0,0002.62,0000.90,0000.75
2022-12-16 04:21:00,,0823.0,5.04,0.00,22.1,21.7,00.0,30.8,24.0,03.8,0000.0,0002.57,0000.88,0000.74
2022-12-16 04:22:00,,0823.0,4.95,0.00,22.1,21.4,00.0,30.8,23.9,03.9,0000.0,0002.51,0000.86,0000.74
2022-12-16 04:23:00,,0823.0,5.05,0.00,22.1,21.1,00.0,30.8,23.9,03.9,0000.0,0002.38,0000.85,0000.75
2022-12-16 04:24:00,,0823.0,4.96,0.00,22.0,20.9,00.0,30.8,23.8,03.9,0000.0,0002.39,0000.86,0000.76
2022-12-16 04:25:00,,0823.0,5.05,0.00,22.0,20.8,00.0,30.9,23.8,03.9,0000.0,0002.39,0000.86,0000.77
2022-12-16 04:26:00,,0823.1,4.96,0.00,22.0,20.6,00.0,30.9,23.8,03.9,0000.0,0002.32,0000.83,0000.77
2022-12-16 04:27:00,,0823.1,5.05,0.00,22.0,20.5,00.0,30.8,23.7,03.9,0000.0,0002.23,0000.80,0000.76
2022-12-16 04:28:00,,0823.1,4.98,0.00,21.9,20.4,00.0,30.8,23.7,03.9,0000.0,0002.23,0000.80,0000.76
2022-12-16 04:29:00,,0823.1,4.98,0.00,21.9,20.4,00.0,30.8,23.7,03.8,0000.0,0001.19,0000.81,0000.76
2022-12-16 04:30:00,,0823.1,5.05,0.00,21.9,20.5,00.0,30.8,23.7,03.8,0000.0,0001.02,0000.83,0000.77
2022-12-16 04:31:00,,0823.0,4.96,0.00,22.0,21.3,00.0,30.8,23.9,03.9,0000.0,0001.06,0000.84,0000.77
2022-12-16 04:32:00,,0822.9,5.01,0.00,22.1,22.1,00.0,30.8,24.1,03.9,0000.0,0001.10,0000.86,0000.78
2022-12-16 04:33:00,,0822.9,5.01,0.00,22.1,21.9,00.0,30.8,24.1,03.9,0000.0,0001.14,0000.88,0000.78
2022-12-16 04:34:00,,0822.9,5.00,0.00,22.1,21.5,00.0,30.9,24.0,03.9,0000.0,0001.13,0000.87,0000.78
2022-12-16 04:35:00,,0823.0,5.04,0.00,22.1,21.1,00.0,30.9,23.9,03.8,0000.0,0001.12,0000.86,0000.77
2022-12-16 04:36:00,,0823.1,4.95,0.00,22.1,20.9,00.0,30.9,23.9,03.8,0000.0,0001.15,0000.85,0000.75
2022-12-16 04:37:00,,0823.0,5.05,0.00,22.0,20.8,00.0,30.9,23.8,03.8,0000.0,0001.17,0000.85,0000.74
2022-12-16 04:38:00,,0822.9,4.98,0.00,22.0,20.7,00.0,30.9,23.8,03.8,0000.0,0001.17,0000.85,0000.74
2022-12-16 04:39:00,,0823.0,4.97,0.00,22.0,20.6,00.0,30.9,23.8,03.8,0000.0,0001.19,0000.85,0000.74
2022-12-16 04:40:00,,0823.0,5.00,0.00,22.0,20.5,00.0,30.9,23.7,03.8,0000.0,0001.20,0000.85,0000.74
2022-12-16 04:41:00,,0823.1,5.02,0.00,22.0,20.5,00.0,30.9,23.7,03.8,0000.0,0001.18,0000.83,0000.73
2022-12-16 04:42:00,,0823.1,4.97,0.00,22.0,20.4,00.0,30.9,23.7,03.9,0000.0,0001.15,0000.83,0000.73
2022-12-16 04:43:00,,0823.0,5.05,0.00,21.9,20.4,00.0,30.8,23.7,03.9,0000.0,0001.15,0000.82,0000.73
2022-12-16 04:44:00,,0822.9,4.98,0.00,22.0,21.0,00.0,30.8,23.8,03.9,0000.0,0001.10,0000.80,0000.72
2022-12-16 04:45:00,,0822.9,4.99,0.00,22.1,22.0,00.0,30.8,24.1,03.9,0000.0,0001.08,0000.79,0000.71
2022-12-16 04:46:00,,0822.8,5.01,0.00,22.1,22.2,00.0,30.8,24.2,03.8,0000.0,0001.10,0000.80,0000.71
2022-12-16 04:47:00,,0822.9,4.99,0.00,22.2,21.7,00.0,30.9,24.1,03.8,0000.0,0001.04,0000.80,0000.72
2022-12-16 04:48:00,,0823.0,5.03,0.00,22.2,21.3,00.0,30.9,24.0,03.8,0000.0,0001.09,0000.82,0000.72
2022-12-16 04:49:00,,0823.0,4.95,0.00,22.1,21.0,00.0,30.9,23.9,03.9,0000.0,0001.13,0000.84,0000.72
2022-12-16 04:50:00,,0823.0,5.06,0.00,22.1,20.8,00.0,30.9,23.8,04.0,0000.0,0001.12,0000.84,0000.73
2022-12-16 04:51:00,,0822.9,4.95,0.00,22.0,20.6,00.0,30.9,23.8,04.0,0000.0,0001.12,0000.85,0000.73
2022-12-16 04:52:00,,0823.1,5.05,0.00,22.0,20.5,00.0,30.9,23.7,04.0,0000.0,0001.12,0000.85,0000.74
2022-12-16 04:53:00,,0823.0,4.97,0.00,22.0,20.4,00.0,30.9,23.7,04.0,0000.0,0001.15,0000.87,0000.74
2022-12-16 04:54:00,,0822.9,4.98,0.00,22.0,20.4,00.0,30.9,23.7,04.0,0000.0,0001.12,0000.86,0000.74
2022-12-16 04:55:00,,0823.0,5.05,0.00,22.0,20.4,00.0,30.9,23.7,04.0,0000.0,0001.15,0000.87,0000.75
2022-12-16 04:56:00,,0823.0,4.98,0.00,21.9,20.4,00.0,30.9,23.7,04.0,0000.0,0001.17,0000.88,0000.75
2022-12-16 04:57:00,,0822.9,4.99,0.00,22.0,21.2,00.0,30.8,23.9,03.9,0000.0,0001.15,0000.87,0000.76
2022-12-16 04:58:00,,0823.0,5.03,0.00,22.1,22.0,00.0,30.8,24.1,03.9,0000.0,0001.17,0000.88,0000.76
2022-12-16 04:59:00,,0822.9,4.95,0.00,22.2,22.0,00.0,30.9,24.1,03.9,0000.0,0001.26,0000.91,0000.77
